Погода в Нурате

Погода в Нурате : погода сейчас, прогноз погоды и архив. Всё, что Вы хотите узнать о погоде в Нурате!

Хотите узнать прогноз погоды в Нурате? Тогда Вам сюда: Погода в Нурате

Поиск расширенной информации на нашем сайте:

Другие новости

Новости СМИ2

Главная страница сайта

Новости сайта

03.07.2017

Напоминаем, что на нашем специализированном сайте Метеоцентр.Азия вы можете получить высокодетализированные автоматические прогнозы погоды по пунктам России, СНГ и мира в авиационном формате (включающие направление и скорость ветра, видимость, явления погоды, количество и форму облачности, нижнюю и верхнюю границу облачности).

Рекомендуем: Создание радиоуправляемых моделей самостоятельно Modelizd.ru

Погода в Нурате - сегодня

Время (UTC), дата Ветер
(°,м/с) 
Видим.   Явления Облачность Т
(°С)
Тd
(°С)
f(%) Тe
(°С)
Pmin
(гПа)
dP
(гПа)
Po
(мм)
O2
(г/м3)
Тmin Tmax R s Состояние
почвы
18 24.07.17 тихо ()   н/о    ясно 
+25.3 +12.5 45 +31  1001.8  711  260    +38.5       
21 24.07.17 тихо ()   н/о    ясно 
+23.5 +12.5 50 +29  1002.4  0.2  711  261           
00 25.07.17 тихо ()   н/о    ясно 
+20.8 +11.2 54 +25  1002.3  0.5  711  264           
03 25.07.17 тихо ()   20000 м    ясно 
+27.6 +12.1 38 +33  1001.5  0.4  711  258  +20.5        сухая 
06 25.07.17 040 (СВ) 20000 м    ясно 
+35.9 +10.3 21 +39  999.6  -0.4  711  251  +20.5         
09 25.07.17 010 (С) 20000 м    ясно 
+37.7 +11.9 21 +43  999.4  711  249           
12 25.07.17 030 (СВ) 20000 м    ясно 
+38.6 +11.3 20 +43  997.7  -1.4  710  248           
15 25.07.17 тихо ()   20000 м    ясно 
+35.4 +13 26 +42  998  -0.2  710  251    +39.1       
18 25.07.17 тихо ()   н/о    ясно 
+26.6 +10.9 37 +30  1000.4  0.7  710  259    +39.1       
21 25.07.17 тихо ()   н/о    ясно 
+24.3 +10.2 41 +27  1000.5  -0.2  710  261           
00 26.07.17 тихо ()   н/о    ясно 
+20.5 +8.8 47 +21  1001.4  0.1  710  265           
03 26.07.17 тихо ()   20000 м    ясно 
+27.7 +10.4 34 +30  1001.4  1.3  711  258  +20.2         
06 26.07.17 030 (СВ) 20000 м    ясно 
+37.7 +11.5 21 +42  999.5  -0.1  711  250  +20.2         
09 26.07.17 030 (СВ) 20000 м    ясно 
+39.8 +12.4 20 +46  999.5  0.4  711  248           
12 26.07.17 030 (СВ) 20000 м    ясно 
+40.4 +13.4 20 +48  999.2  -0.3  711  247           
15 26.07.17 тихо ()   20000 м    ясно 
+36.5 +12.4 24 +42  997.8  -1.9  710  250    +41.5       
18 26.07.17 тихо ()   н/о    ясно 
+27.3 +7.8 29 +27  1001  1.5  711  259    +41.5       
21 26.07.17 тихо ()   н/о    ясно 
+28.3 +10 32 +31  1001.9  711  258           
00 27.07.17 тихо ()   н/о    ясно 
+27.1 +10.6 36 +30  1002.7  0.5  712  259           
03 27.07.17 тихо ()   20000 м    ясно 
+29 +12.7 37 +35  1004  1.6  713  257  +26.8        сухая 
06 27.07.17 030 (СВ) 20000 м    ясно 
+34.4 +9.5 22 +36  1003  713  253  +26.8         
09 27.07.17 030 (СВ) 20000 м    ясно 
+37.4 +10.7 20 +41  1002.4  -0.1  713  251           
12 27.07.17 030 (СВ) 20000 м    ясно 
+38.2 +10.3 19 +41  1001.5  -0.8  712  250           
15 27.07.17 тихо ()   20000 м    ясно 
+35.1 +12.8 26 +41  1002.5  0.5  713  252    +39.7       
18 27.07.17 тихо ()   н/о    ясно 
+27.8 +10 33 +30  1004.9  1.1  714  259    +39.7       
Время (UTC), дата Ветер
(°,м/с) 
Видим.   Явления Облачность Т
(°С)
Тd
(°С)
f(%) Тe
(°С)
Pmin
(гПа)
dP
(гПа)
Po
(мм)
O2
(г/м3)
Тmin Tmax R s Состояние
почвы

Для получения пояснительной информации подведите курсор к названию столбца.

ПОГОДА в Нурате - архив

Всё, что Вы хотите узнать о погоде в Нурате - удобно и подробно!

Выберите нужную дату (начиная с 1 января 2015* года) и нажмите кнопку "Найти".
Будут отображены архивные сводки погоды по пункту Нурата, начиная с указанной даты.


Отображать данные в формате CSV (для использования в таблицах Excel)


Внимание! Наш архив погоды предназначен исключительно для личного некоммерческого использования в познавательных целях. Если Вам необходимы официальные справки о состоянии погоды (для производственных, юридических, коммерческих и т.п. целей), обращайтесь в органы Росгидромета.

*Примечание: данная дата относится к архиву по метеостанциям СССР (Россия, СНГ, Балтия).
Архив по метеостанциям Зарубежной Европы и Азии (кроме Китая) хранится 10 дней, по другим регионам земного шара (Китай, Африка, Америка, Австралия, Океания) - 1 день.

Нурата - район местоположения метеостанции


Название, широта, долгота, высота метеостанции:
Нурата 40.6°ш. 65.7°д. 485 м над ур. моря [Узбекистан]

Дополнительная информация

В oтличие oт бoльшинства пoгoдных сайтoв мы публикуем пoдрoбную метеoинфoрмацию в детальнoм прoфессиoнальнoм фoрмате.

Характеристики температуры и влажнoсти вoздуха измеряются на высoте 2 м в тени вдали oт зданий и деревьев.
Скoрoсть ветра измеряется на высoте 10 м (на урoвне рoста челoвека скoрoсть ветра ниже в 1.5-2 раза). Если метеoстанция нахoдится в гoрoде или в лесу, тo скoрoсть ветра занижена на 2-4 м/с пo сравнению с oткрытым местoм. Скoрoсть ветра над акватoриями крупных рек и oзёр, а также на вершинах хoлмoв на 2-5 м/с выше, чем в oбычных услoвиях.
Атмoсфернoе давление в разных тoчках местнoсти мoжет значительнo oтличаться oт давления на метеoстанции, в зависимoсти oт услoвий рельефа (при пoдъёме на 10 м давление пoнижается примернo на 1 мм рт.ст.).